Wind_Speed
20 21 20 18 18 17 16 15 14 14 13 12 12 12 11 11 11 10 10 10 9 9 9 9 9 9 9 9 8 8 8 8 8 8 8 9 9 10 11 12 13 14 15 15
21 21 20 19 18 17 17 17 16 15 13 13 13 13 13 12 12 11 11 11 11 11 10 10 11 11 10 10 10 10 10 10 10 10 10 11 11 12 13 14 15 15 16 17
19 19 20 19 18 18 18 18 17 15 14 15 14 14 13 13 13 12 12 12 12 12 12 12 12 12 12 12 12 12 12 12 12 12 12 12 13 13 14 15 16 17 18 18
20 20 20 18 18 19 19 18 17 17 16 16 15 15 14 14 13 14 13 13 13 13 13 13 13 13 13 14 14 14 13 13 13 13 14 14 15 15 16 17 18 19 19 20
21 20 19 18 18 18 18 18 18 17 17 17 17 16 15 15 14 14 14 14 14 13 13 13 14 14 14 15 15 15 15 15 15 15 16 16 17 17 18 19 20 20 21 22
21 20 18 18 17 17 17 17 18 18 18 18 17 17 17 17 16 15 15 15 15 15 15 15 15 16 16 16 17 17 17 17 17 17 17 18 18 19 20 20 21 22 22 23
22 21 19 19 17 17 17 17 17 18 18 18 19 19 19 18 18 17 17 17 17 17 17 17 17 17 18 18 18 19 19 19 19 19 19 19 20 21 21 22 22 23 23 24
22 21 20 19 17 18 18 17 17 17 17 18 19 20 19 19 19 19 19 19 19 20 20 19 19 19 20 20 20 20 20 20 21 21 21 21 21 22 22 23 24 24 25 25
22 21 21 20 19 19 18 18 18 17 17 18 19 20 20 20 20 20 20 20 21 21 21 21 21 21 22 22 21 21 21 22 22 22 22 23 23 24 24 25 26 26 26 27
21 21 21 22 21 20 19 19 19 19 19 19 19 20 20 21 21 21 21 21 21 21 22 22 23 23 23 23 23 23 23 23 23 24 24 24 25 26 26 27 27 28 28 29
23 23 23 22 22 21 21 20 20 20 20 20 21 22 22 21 21 21 22 22 22 22 23 23 23 23 23 24 24 25 24 25 25 26 26 26 27 28 28 29 29 30 30 31
25 24 24 23 23 22 21 21 21 21 21 22 22 23 23 23 23 23 23 23 23 23 23 23 24 24 24 25 25 25 25 26 26 27 28 28 29 29 30 30 31 31 32 33
22 23 24 24 24 23 23 23 23 23 23 23 23 24 25 25 24 24 24 24 25 24 24 24 24 24 24 25 26 26 27 27 28 29 29 30 31 31 32 32 33 33 34 35
21 21 22 23 23 23 24 24 25 24 24 24 25 25 25 25 25 26 26 26 26 25 24 24 24 24 25 26 27 28 28 29 29 30 31 31 32 33 34 34 35 35 37 38
20 21 22 22 23 24 25 25 25 25 25 24 25 25 26 26 27 28 28 27 27 26 26 26 26 26 27 27 28 29 30 31 31 32 33 33 34 35 35 36 37 38 39 40
20 20 21 22 23 23 24 24 24 25 25 25 25 26 26 27 28 28 28 27 27 28 27 27 28 28 29 29 30 31 32 32 33 34 35 36 36 37 38 39 40 40 41 42
19 19 20 21 22 22 23 24 24 24 25 25 25 26 26 27 27 26 27 27 28 28 28 29 30 30 31 31 32 32 33 34 35 36 37 38 39 40 41 41 42 43 43 43
19 19 20 21 21 22 23 23 23 23 24 25 26 27 27 27 27 28 28 28 28 29 29 30 32 32 33 33 34 35 36 37 38 38 39 40 41 42 43 43 43 44 44 44
18 19 20 21 21 22 22 23 24 24 24 25 26 27 28 29 29 29 29 29 30 31 31 33 35 35 35 36 36 37 38 39 40 41 42 42 43 43 44 44 45 45 46 46
19 19 20 21 21 21 22 23 24 25 26 26 27 27 28 28 28 29 30 32 32 33 34 35 35 36 37 38 39 39 40 41 42 42 43 43 44 45 45 46 47 47 48 48
20 20 20 21 22 22 22 23 24 25 26 27 28 28 29 29 30 31 32 33 34 35 36 36 37 38 39 40 40 41 42 43 44 44 45 45 46 46 47 48 48 48 49 48
20 21 21 21 22 23 23 24 25 26 27 28 28 30 31 31 32 33 34 35 36 36 37 38 39 40 41 42 43 44 45 45 45 45 46 47 48 48 48 49 49 49 49 48
22 21 22 22 23 24 24 25 26 27 28 29 30 31 32 33 34 34 35 37 37 38 39 40 41 42 43 43 44 45 46 46 46 47 47 48 48 48 48 49 49 49 49 48
24 24 24 24 24 25 26 27 27 28 29 30 31 32 33 34 35 36 37 38 39 40 42 42 42 43 44 44 45 46 47 47 47 47 47 47 47 48 48 48 48 48 47 46
25 25 25 25 26 27 28 28 29 30 31 32 34 34 35 36 37 38 39 40 41 42 42 43 44 44 45 46 46 46 46 47 46 46 46 46 47 47 47 46 46 45 44 43
26 27 27 28 29 30 31 31 32 32 33 33 34 35 37 37 38 39 40 41 42 43 44 45 45 46 46 46 47 47 47 46 46 46 46 46 46 46 45 44 43 43 41 40
28 29 29 30 30 31 32 32 33 34 35 36 36 37 37 38 39 40 41 42 43 43 43 44 44 45 46 46 46 46 46 46 46 45 45 44 44 43 42 41 40 40 39 38
Wind_Direction
229 233 238 241 242 244 243 243 245 251 257 261 263 261 261 261 261 259 259 258 260 262 264 264 264 263 265 267 269 273 278 281 287 294 299 304 309 314 319 323 324 325 325 325
231 235 238 237 241 245 247 247 247 249 255 256 258 260 260 259 259 258 258 258 260 261 263 266 266 264 265 268 271 273 277 281 285 290 294 299 304 309 315 319 321 321 321 321
232 238 239 241 244 248 251 247 247 251 254 254 254 256 259 259 258 256 258 260 260 261 264 267 267 265 265 268 271 273 275 279 282 287 291 296 300 305 310 313 317 318 318 319
231 238 243 245 246 246 248 246 248 248 249 249 249 251 254 258 258 256 259 263 263 263 266 267 267 265 264 267 270 273 275 278 282 285 289 293 297 302 306 310 313 315 315 315
233 241 245 248 245 243 245 244 244 244 244 246 246 249 252 256 258 258 259 262 263 264 265 267 267 266 265 267 271 274 276 279 282 286 290 293 297 301 305 307 310 311 311 313
235 238 244 246 241 239 241 242 243 244 243 242 242 246 251 254 257 259 260 261 264 265 267 268 268 267 267 269 272 275 278 281 284 286 289 293 297 299 302 305 307 309 309 310
237 238 241 242 241 237 239 242 241 241 241 241 242 245 249 252 256 259 260 263 265 266 268 269 270 269 268 270 273 276 278 281 283 285 288 292 295 298 300 303 305 307 308 308
233 235 237 237 239 238 239 241 241 241 241 242 245 247 248 252 256 258 260 262 264 266 268 269 270 270 270 271 273 277 279 280 282 285 288 290 293 296 299 301 304 306 307 308
231 235 237 239 242 241 241 241 240 241 244 246 249 250 251 254 256 257 258 261 262 264 267 269 270 269 269 270 273 275 277 280 283 285 287 290 293 296 299 301 303 305 306 307
233 236 240 242 242 242 243 242 242 244 245 248 251 253 255 257 258 259 260 261 263 265 267 269 269 269 268 270 272 273 276 279 282 285 287 290 292 295 297 299 301 303 304 306
235 237 240 242 242 242 243 243 244 246 248 250 252 254 256 258 259 260 262 262 263 266 269 269 269 269 270 271 273 273 275 278 281 285 287 290 292 294 296 298 300 301 302 304
238 239 240 241 242 242 243 244 245 246 248 251 252 253 255 258 260 260 260 261 264 266 268 269 269 270 270 272 273 274 277 279 282 285 288 290 292 293 295 297 299 300 301 302
244 241 241 242 243 244 245 246 248 248 250 251 252 254 255 258 261 262 261 262 265 265 267 268 269 270 272 274 276 278 280 282 285 287 289 291 292 293 294 297 298 299 300 301
245 243 243 242 242 244 246 249 250 250 251 254 256 255 257 260 260 261 261 263 264 265 266 268 270 272 274 276 279 280 282 284 286 288 290 291 292 293 294 296 298 299 300 300
244 244 246 245 245 244 246 249 251 251 253 256 255 255 257 258 260 261 261 264 264 265 267 269 272 274 275 277 280 282 283 285 287 289 290 291 292 293 293 296 297 298 299 300
244 245 246 247 247 248 249 251 253 252 253 257 257 256 257 257 259 261 263 264 265 266 268 270 273 275 276 278 281 282 283 285 287 288 290 291 292 292 294 295 296 297 299 299
245 247 248 249 249 249 251 254 255 254 254 255 256 256 256 257 259 261 262 265 267 268 269 272 274 276 278 279 281 282 284 285 287 288 290 291 292 293 294 295 296 297 297 298
247 249 249 250 251 252 253 255 254 254 255 255 256 256 257 260 260 262 265 267 269 271 273 274 276 277 278 279 282 283 283 285 287 289 290 291 293 294 294 295 296 297 297 298
251 253 253 253 254 254 254 256 257 259 260 260 261 261 261 262 263 264 266 268 271 272 275 277 276 276 278 280 282 284 285 286 287 289 290 291 292 293 295 295 296 297 297 298
256 259 258 257 257 258 259 259 261 262 262 263 263 264 264 265 266 267 269 271 273 274 276 278 278 278 280 282 283 285 286 286 287 289 290 291 292 293 294 294 295 296 297 298
257 258 260 261 260 260 261 262 265 266 266 266 264 264 266 267 268 269 271 273 273 274 276 277 278 280 282 283 284 285 286 287 288 289 290 291 292 293 293 294 294 295 296 296
261 262 264 264 264 263 263 265 267 267 267 268 268 267 267 268 270 271 272 274 275 276 277 278 280 281 282 283 285 286 288 289 289 289 290 290 291 292 293 294 294 294 294 294
264 266 267 268 268 268 266 266 268 268 268 270 271 271 271 271 272 273 274 276 278 278 279 280 282 282 283 284 286 287 288 288 288 289 290 291 292 292 293 293 293 294 294 294
264 265 267 270 272 272 271 270 270 269 269 270 271 272 273 273 274 275 277 277 278 280 281 282 282 283 284 285 286 287 287 288 288 289 290 291 292 292 293 293 293 294 294 294
266 266 267 270 273 274 274 274 275 277 277 275 274 274 275 276 277 278 279 280 280 281 282 283 285 285 286 287 288 289 289 288 289 290 290 291 291 292 292 292 293 293 294 294
272 274 273 272 274 276 277 278 279 279 280 280 280 280 280 280 280 281 282 283 283 284 284 285 286 286 287 287 288 289 289 289 290 290 291 291 292 293 293 293 294 294 295 295
275 276 275 275 276 276 276 277 278 280 281 283 284 283 283 283 283 284 284 285 285 286 286 286 286 287 288 289 289 289 290 291 291 292 292 292 293 293 293 293 294 295 295 296
Height
5826 5828 5829 5831 5832 5833 5835 5836 5839 5840 5840 5840 5839 5840 5840 5840 5841 5841 5842 5842 5842 5842 5843 5843 5843 5843 5843 5843 5843 5842 5841 5841 5840 5839 5838 5837 5835 5834 5832 5830 5828 5825 5823 5820
5820 5822 5824 5826 5828 5829 5830 5832 5833 5834 5836 5836 5835 5836 5836 5837 5837 5838 5838 5839 5839 5839 5840 5840 5840 5840 5840 5840 5840 5839 5839 5838 5837 5836 5835 5834 5832 5831 5829 5826 5824 5822 5819 5816
5816 5818 5820 5822 5824 5825 5826 5827 5829 5830 5832 5831 5831 5832 5832 5833 5834 5834 5835 5836 5836 5836 5837 5837 5837 5837 5837 5837 5837 5836 5836 5835 5834 5833 5832 5830 5829 5827 5825 5823 5820 5818 5815 5812
5812 5814 5815 5820 5819 5820 5821 5822 5823 5824 5825 5826 5827 5827 5828 5829 5830 5831 5831 5832 5832 5833 5833 5833 5833 5834 5834 5834 5833 5833 5832 5831 5830 5829 5828 5827 5825 5823 5821 5819 5816 5813 5811 5808
5806 5808 5811 5813 5814 5814 5816 5817 5818 5818 5820 5821 5822 5823 5824 5825 5826 5826 5827 5828 5828 5829 5829 5829 5829 5830 5829 5829 5829 5829 5828 5827 5826 5825 5824 5822 5821 5818 5816 5814 5811 5809 5806 5803
5801 5803 5806 5808 5808 5808 5811 5812 5812 5813 5814 5815 5817 5819 5820 5820 5821 5822 5823 5824 5824 5825 5825 5825 5825 5825 5825 5825 5824 5824 5823 5822 5821 5820 5819 5817 5815 5813 5811 5809 5806 5803 5801 5798
5795 5797 5800 5801 5802 5804 5807 5807 5806 5807 5808 5810 5812 5814 5815 5815 5816 5817 5818 5819 5819 5820 5820 5820 5820 5820 5820 5820 5819 5819 5818 5817 5816 5815 5814 5812 5810 5808 5806 5803 5801 5798 5795 5792
5789 5792 5796 5795 5796 5798 5800 5800 5801 5802 5803 5805 5806 5807 5809 5810 5811 5812 5813 5814 5814 5815 5815 5815 5815 5815 5814 5814 5814 5813 5813 5812 5811 5809 5808 5806 5804 5802 5800 5797 5795 5792 5789 5786
5783 5787 5787 5788 5790 5791 5793 5794 5796 5797 5798 5799 5801 5802 5803 5804 5805 5806 5807 5808 5809 5809 5809 5809 5809 5809 5809 5808 5808 5807 5807 5806 5805 5803 5802 5800 5798 5796 5793 5791 5788 5785 5782 5779
5776 5779 5780 5782 5784 5785 5787 5789 5790 5792 5793 5794 5795 5796 5797 5798 5799 5800 5801 5802 5802 5803 5803 5803 5803 5803 5802 5802 5802 5801 5800 5799 5798 5796 5795 5793 5791 5789 5786 5783 5781 5778 5774 5771
5770 5772 5774 5776 5778 5780 5781 5783 5785 5786 5787 5788 5789 5790 5791 5792 5793 5794 5795 5795 5796 5796 5796 5796 5796 5796 5796 5795 5795 5794 5793 5792 5790 5789 5787 5785 5783 5781 5779 5776 5773 5770 5767 5763
5763 5766 5767 5770 5771 5773 5775 5777 5779 5780 5781 5782 5783 5784 5785 5786 5787 5787 5788 5789 5789 5790 5790 5790 5789 5789 5789 5788 5788 5787 5785 5784 5783 5781 5780 5778 5775 5773 5770 5768 5765 5762 5758 5755
5757 5759 5761 5763 5765 5767 5769 5771 5772 5773 5774 5775 5776 5777 5778 5779 5780 5781 5781 5782 5782 5782 5782 5782 5782 5782 5782 5781 5780 5779 5778 5776 5775 5773 5771 5769 5767 5764 5762 5759 5756 5753 5749 5745
5751 5752 5754 5756 5758 5760 5762 5763 5765 5766 5767 5768 5769 5770 5771 5772 5773 5773 5774 5774 5775 5775 5775 5775 5775 5775 5774 5773 5772 5771 5770 5768 5766 5764 5762 5760 5758 5755 5752 5749 5746 5743 5739 5736
5745 5746 5748 5750 5752 5753 5755 5756 5757 5759 5760 5761 5762 5763 5764 5764 5765 5765 5766 5766 5767 5767 5767 5767 5767 5766 5766 5765 5764 5763 5761 5759 5757 5755 5753 5751 5748 5745 5742 5739 5736 5732 5728 5725
5738 5740 5741 5743 5745 5747 5748 5749 5750 5752 5753 5754 5754 5755 5756 5757 5757 5758 5758 5759 5759 5759 5759 5759 5758 5758 5757 5756 5755 5754 5752 5750 5748 5746 5743 5741 5738 5735 5732 5728 5725 5721 5717 5713
5732 5734 5735 5737 5738 5740 5741 5742 5743 5744 5745 5746 5747 5747 5748 5749 5750 5750 5751 5751 5751 5751 5751 5750 5750 5749 5748 5747 5746 5744 5742 5740 5738 5736 5733 5730 5727 5724 5720 5717 5713 5709 5705 5701
5727 5728 5729 5730 5732 5733 5734 5735 5736 5737 5737 5738 5739 5740 5740 5741 5742 5742 5742 5742 5742 5742 5742 5741 5740 5739 5738 5737 5735 5733 5731 5729 5727 5725 5722 5719 5715 5712 5708 5705 5701 5697 5693 5688
5721 5722 5723 5724 5725 5726 5726 5727 5729 5729 5730 5730 5731 5732 5732 5733 5733 5734 5734 5734 5734 5733 5733 5732 5730 5729 5728 5726 5725 5723 5720 5718 5716 5713 5710 5707 5703 5699 5696 5692 5688 5684 5680 5676
5715 5716 5717 5717 5718 5719 5720 5721 5721 5722 5722 5723 5723 5723 5724 5724 5724 5724 5725 5724 5724 5723 5722 5721 5720 5719 5717 5715 5713 5711 5709 5706 5703 5700 5697 5694 5690 5687 5683 5679 5675 5671 5666 5662
5709 5710 5710 5711 5712 5713 5713 5714 5714 5714 5715 5715 5715 5715 5715 5715 5715 5715 5715 5714 5714 5713 5712 5710 5709 5707 5705 5703 5701 5699 5696 5693 5690 5687 5684 5681 5677 5673 5669 5665 5661 5657 5653 5648
5704 5704 5704 5705 5705 5706 5706 5706 5706 5706 5706 5706 5706 5707 5706 5706 5706 5705 5705 5704 5703 5702 5700 5699 5697 5695 5693 5691 5688 5685 5682 5680 5677 5674 5670 5667 5663 5659 5655 5651 5647 5643 5639 5634
5697 5698 5698 5698 5698 5698 5698 5698 5698 5698 5698 5698 5698 5698 5697 5697 5696 5695 5694 5693 5691 5690 5688 5686 5685 5682 5680 5677 5674 5672 5669 5666 5662 5659 5656 5652 5649 5645 5641 5637 5632 5628 5624 5620
5691 5691 5691 5691 5691 5691 5691 5691 5690 5690 5689 5689 5688 5688 5687 5686 5685 5684 5682 5681 5680 5678 5676 5674 5672 5669 5666 5663 5660 5657 5654 5651 5648 5645 5641 5638 5634 5630 5626 5622 5618 5614 5609 5605
5683 5683 5683 5683 5683 5682 5682 5681 5681 5680 5680 5679 5678 5677 5676 5675 5674 5672 5670 5669 5667 5664 5662 5660 5658 5655 5652 5649 5646 5643 5640 5636 5633 5630 5626 5623 5619 5615 5611 5607 5603 5599 5595 5591
5674 5674 5674 5674 5674 5673 5673 5672 5671 5670 5669 5668 5667 5666 5665 5663 5661 5660 5658 5656 5653 5651 5648 5646 5643 5640 5637 5634 5631 5628 5625 5622 5618 5615 5612 5608 5605 5601 5597 5593 5589 5586 5582 5578
5666 5665 5665 5665 5664 5664 5663 5662 5661 5660 5658 5657 5655 5654 5652 5651 5649 5647 5644 5642 5639 5637 5634 5631 5628 5626 5623 5620 5616 5613 5610 5607 5604 5601 5597 5594 5590 5587 5583 5580 5576 5573 5569 5566